Skip Page Navigation
NASA JPL Caltech
NASA Logo - Jet Propulsion Laboratory + View the NASA Portal
+ Center for Near-Earth Object Studies
JPL Home Earth Solar System Stars & Galaxies Technology
JPL Solar System Dynamics
BODIES ORBITS EPHEMERIDES TOOLS PHYSICAL DATA DISCOVERY FAQ SITE MAP
JPL Small-Body Database Browser
Search: [ help ]  
37054 (2000 UD40)
Classification: Main-belt Asteroid          SPK-ID: 2037054
Ephemeris | Orbit Diagram | Orbital Elements | Mission Design | Physical Parameters | Discovery Circumstances | Close-Approach Data ]

[ show orbit diagram ]
Orbital Elements at Epoch 2459000.5 (2020-May-31.0) TDB
Reference: JPL 24 (heliocentric ecliptic J2000)
 Element Value Uncertainty (1-sigma)   Units 
e .1042121200653885 4.3611e-08  
a 2.981513555344244 1.8025e-08 au
q 2.670803706738127 1.2893e-07 au
i 2.100432734314924 3.2764e-06 deg
node 270.6935535674343 0.00013513 deg
peri 246.2658553399294 0.00013683 deg
M 184.1543527150973 2.5337e-05 deg
tp 2459919.007551203673
(2022-Dec-05.50755120)
0.00013771 TDB
period 1880.414576868014
5.15
1.7053e-05
4.669e-08
d
yr
n .1914471438525061 1.7362e-09 deg/d
Q 3.292223403950362 1.9904e-08 au
  Orbit Determination Parameters
   # obs. used (total)      1181  
   data-arc span      9576 days (26.22 yr)  
   first obs. used      1994-08-13  
   last obs. used      2020-10-31  
   planetary ephem.      DE431  
   SB-pert. ephem.      SB431-N16  
   condition code      0  
   norm. resid. RMS      .53909  
   source      ORB  
   producer      Otto Matic  
   solution date      2020-Nov-13 00:32:36  

Additional Information
 Earth MOID = 1.68113 au 
 Jupiter MOID = 1.70582 au 
 T_jup = 3.250 
[ show covariance matrix ]

Ephemeris | Orbit Diagram | Orbital Elements | Mission Design | Physical Parameters | Discovery Circumstances | Close-Approach Data ]

Physical Parameter Table
Parameter Symbol Value Units Sigma Reference Notes
absolute magnitude H 14.2   n/a MPO302279  
diameter diameter 6.734 km 0.582 urn:nasa:pds:neowise_diameters_albedos::2.0[mainbelt] (http://adsabs.harvard.edu/abs/2011ApJ...741...68M)  
geometric albedo albedo 0.098   0.030 urn:nasa:pds:neowise_diameters_albedos::2.0[mainbelt] (http://adsabs.harvard.edu/abs/2011ApJ...741...68M)  

37054 (2000 UD40)          Discovered 2000-Oct-24 by LINEAR at Socorro
Reference: 20020227/Numbers.arcLast Updated: 2004-04-19

[ show close-approach data ]
Ephemeris | Orbit Diagram | Orbital Elements | Mission Design | Physical Parameters | Discovery Circumstances | Close-Approach Data ]
ABOUT SSD CREDITS/AWARDS PRIVACY/COPYRIGHT GLOSSARY LINKS
FirstGov 2020-Dec-01 16:10 UT
(server date/time)  
NASA Home Page
Site Manager:   Ryan S. Park
Webmaster  Alan B. Chamberlin